This demonstration page uses our WeatherBlox Daily Observations layout. Learn more.

Left ArrowRight Arrow

Hourly Observations for November 5, 2020

Temp ( °F °C ) Dew Point ( °F °C ) Humidity (%) Winds ( mph kmh ) Pressure ( in mb ) Visibility ( mi km ) Precip ( " mm )
12:53 am 00:53 Clear 40 4.4 37 2.8 89 89 ESE 3 6 30.30 1026 10 16 0.00 0.00
1:53 am 01:53 Clear 38 3.3 37 2.8 97 97 Calm 30.29 1026 10 16 0.00 0.00
2:53 am 02:53 Clear 38 3.3 36 2.2 93 93 E 5 7 30.30 1026 10 16 0.00 0.00
3:53 am 03:53 Clear 37 2.8 35 1.7 93 93 E 3 6 30.31 1026 10 16 0.00 0.00
4:53 am 04:53 Clear 37 2.8 36 2.2 96 96 Calm 30.32 1027 10 16 0.00 0.00
5:53 am 05:53 Clear 37 2.8 35 1.7 93 93 Calm 30.33 1027 10 16 0.00 0.00
6:53 am 06:53 Clear 35 1.7 33 0.6 93 93 Calm 30.34 1027 10 16 0.00 0.00
7:53 am 07:53 Sunny 37 2.8 36 2.2 96 96 Calm 30.35 1028 10 16 0.00 0.00
8:53 am 08:53 Sunny 52 11.1 44 6.7 75 75 ESE 3 6 30.35 1028 10 16 0.00 0.00
9:53 am 09:53 Sunny 57 13.9 44 6.7 62 62 VRB 3 6 30.34 1027 10 16 0.00 0.00
10:53 am 10:53 Sunny 62 16.7 44 6.7 52 52 VRB 3 6 30.33 1027 10 16 0.00 0.00
11:53 am 11:53 Sunny 65 18.3 45 7.2 49 49 Calm 30.31 1027 10 16 0.00 0.00
12:53 pm 12:53 Sunny 66 18.9 44 6.7 45 45 SSW 9 15 30.30 1026 10 16 0.00 0.00
1:53 pm 13:53 Sunny 68 20 44 6.7 42 42 VRB 6 9 30.29 1026 10 16 0.00 0.00
2:53 pm 14:53 Sunny 67 19.4 43 6.1 42 42 SSW 8 13 30.28 1026 10 16 0.00 0.00
3:53 pm 15:53 Sunny 66 18.9 44 6.7 45 45 S 6 9 30.27 1025 10 16 0.00 0.00
4:53 pm 16:53 Sunny 65 18.3 44 6.7 47 47 VRB 3 6 30.27 1025 10 16 0.00 0.00
5:53 pm 17:53 Clear 61 16.1 44 6.7 54 54 VRB 3 6 30.27 1025 10 16 0.00 0.00
6:53 pm 18:53 Clear 54 12.2 43 6.1 67 67 Calm 30.29 1026 10 16 0.00 0.00
7:53 pm 19:53 Clear 50 10 43 6.1 77 77 Calm 30.29 1026 10 16 0.00 0.00
8:53 pm 20:53 Clear 48 8.9 42 5.6 80 80 Calm 30.29 1026 10 16 0.00 0.00
9:53 pm 21:53 Clear 46 7.8 42 5.6 86 86 Calm 30.29 1026 10 16 0.00 0.00
10:53 pm 22:53 Clear 45 7.2 41 5 86 86 Calm 30.29 1026 10 16 0.00 0.00
11:53 pm 23:53 Clear 40 4.4 37 2.8 89 89 Calm 30.30 1026 10 16 0.00 0.00

Powered by AerisWeather